Year,Month,Day,Hour,Minute,Value (Times are PST for temperature in C)
2006,09,14,00,00,10.90
2006,09,14,00,01,10.90
2006,09,14,00,02,10.90
2006,09,14,00,03,10.90
2006,09,14,00,04,10.90
2006,09,14,00,05,10.90
2006,09,14,00,06,10.90
2006,09,14,00,07,10.90
2006,09,14,00,08,10.90
2006,09,14,00,09,10.90
2006,09,14,00,10,10.90
2006,09,14,00,11,10.90
2006,09,14,00,12,10.90
2006,09,14,00,13,10.90
2006,09,14,00,14,10.90
2006,09,14,00,15,10.90
2006,09,14,00,16,10.90
2006,09,14,00,17,10.90
2006,09,14,00,18,10.90
2006,09,14,00,19,10.90
2006,09,14,00,20,10.90
2006,09,14,00,21,10.90
2006,09,14,00,22,10.90
2006,09,14,00,23,10.90
2006,09,14,00,24,10.90
2006,09,14,00,25,11.00
2006,09,14,00,26,11.10
2006,09,14,00,27,11.10
2006,09,14,00,28,11.10
2006,09,14,00,29,11.10
2006,09,14,00,30,11.10
2006,09,14,00,31,11.10
2006,09,14,00,32,11.10
2006,09,14,00,33,11.10
2006,09,14,00,34,11.10
2006,09,14,00,35,11.10
2006,09,14,00,36,11.10
2006,09,14,00,37,11.10
2006,09,14,00,38,11.10
2006,09,14,00,39,11.20
2006,09,14,00,40,11.20
2006,09,14,00,41,11.20
2006,09,14,00,42,11.20
2006,09,14,00,43,11.20
2006,09,14,00,44,11.20
2006,09,14,00,45,11.30
2006,09,14,00,46,11.30
2006,09,14,00,47,11.30
2006,09,14,00,48,11.30
2006,09,14,00,49,11.30
2006,09,14,00,50,11.30
2006,09,14,00,51,11.30
2006,09,14,00,52,11.30
2006,09,14,00,53,11.40
2006,09,14,00,54,11.40
2006,09,14,00,55,11.40
2006,09,14,00,56,11.40
2006,09,14,00,57,11.40
2006,09,14,00,58,11.40
2006,09,14,00,59,11.40
2006,09,14,01,00,11.40
2006,09,14,01,01,11.30
2006,09,14,01,02,11.30
2006,09,14,01,03,11.30
2006,09,14,01,04,11.30
2006,09,14,01,05,11.30
2006,09,14,01,06,11.30
2006,09,14,01,07,11.30
2006,09,14,01,08,11.30
2006,09,14,01,09,11.30
2006,09,14,01,10,11.30
2006,09,14,01,11,11.30
2006,09,14,01,12,11.30
2006,09,14,01,13,11.20
2006,09,14,01,14,11.20
2006,09,14,01,15,11.20
2006,09,14,01,16,11.20
2006,09,14,01,17,11.20
2006,09,14,01,18,11.20
2006,09,14,01,19,11.20
2006,09,14,01,20,11.20
2006,09,14,01,21,11.20
2006,09,14,01,22,11.10
2006,09,14,01,23,11.10
2006,09,14,01,24,11.10
2006,09,14,01,25,11.10
2006,09,14,01,26,11.10
2006,09,14,01,27,11.10
2006,09,14,01,28,11.10
2006,09,14,01,29,11.10
2006,09,14,01,30,11.10
2006,09,14,01,31,11.10
2006,09,14,01,32,11.10
2006,09,14,01,33,11.10
2006,09,14,01,34,11.20
2006,09,14,01,35,11.20
2006,09,14,01,36,11.20
2006,09,14,01,37,11.20
2006,09,14,01,38,11.20
2006,09,14,01,39,11.30
2006,09,14,01,40,11.30
2006,09,14,01,41,11.30
2006,09,14,01,42,11.30
2006,09,14,01,43,11.30
2006,09,14,01,44,11.30
2006,09,14,01,45,11.30
2006,09,14,01,46,11.30
2006,09,14,01,47,11.30
2006,09,14,01,48,11.30
2006,09,14,01,49,11.20
2006,09,14,01,50,11.20
2006,09,14,01,51,11.20
2006,09,14,01,52,11.20
2006,09,14,01,53,11.20
2006,09,14,01,54,11.10
2006,09,14,01,55,11.10
2006,09,14,01,56,11.10
2006,09,14,01,57,11.10
2006,09,14,01,58,11.10
2006,09,14,01,59,11.10
2006,09,14,02,00,11.10
2006,09,14,02,01,11.00
2006,09,14,02,02,10.90
2006,09,14,02,03,10.90
2006,09,14,02,04,10.90
2006,09,14,02,05,10.90
2006,09,14,02,06,10.80
2006,09,14,02,07,10.80
2006,09,14,02,08,10.70
2006,09,14,02,09,10.70
2006,09,14,02,10,10.70
2006,09,14,02,11,10.60
2006,09,14,02,12,10.60
2006,09,14,02,13,10.60
2006,09,14,02,14,10.60
2006,09,14,02,15,10.60
2006,09,14,02,16,10.60
2006,09,14,02,17,10.50
2006,09,14,02,18,10.40
2006,09,14,02,19,10.40
2006,09,14,02,20,10.40
2006,09,14,02,21,10.40
2006,09,14,02,22,10.30
2006,09,14,02,23,10.30
2006,09,14,02,24,10.30
2006,09,14,02,25,10.20
2006,09,14,02,26,10.20
2006,09,14,02,27,10.20
2006,09,14,02,28,10.20
2006,09,14,02,29,10.10
2006,09,14,02,30,10.10
2006,09,14,02,31,10.10
2006,09,14,02,32,10.10
2006,09,14,02,33,10.10
2006,09,14,02,34,10.10
2006,09,14,02,35,9.90
2006,09,14,02,36,9.90
2006,09,14,02,37,9.90
2006,09,14,02,38,9.90
2006,09,14,02,39,9.90
2006,09,14,02,40,9.90
2006,09,14,02,41,9.90
2006,09,14,02,42,9.90
2006,09,14,02,43,9.80
2006,09,14,02,44,9.80
2006,09,14,02,45,9.90
2006,09,14,02,46,9.90
2006,09,14,02,47,9.90
2006,09,14,02,48,9.90
2006,09,14,02,49,9.90
2006,09,14,02,50,9.90
2006,09,14,02,51,9.90
2006,09,14,02,52,9.90
2006,09,14,02,53,9.90
2006,09,14,02,54,9.90
2006,09,14,02,55,9.90
2006,09,14,02,56,9.90
2006,09,14,02,57,9.90
2006,09,14,02,58,9.90
2006,09,14,02,59,9.90
2006,09,14,03,00,9.90
2006,09,14,03,01,9.90
2006,09,14,03,02,9.90
2006,09,14,03,03,9.90
2006,09,14,03,04,9.90
2006,09,14,03,05,9.80
2006,09,14,03,06,9.80
2006,09,14,03,07,9.80
2006,09,14,03,08,9.80
2006,09,14,03,09,9.80
2006,09,14,03,10,9.80
2006,09,14,03,11,9.80
2006,09,14,03,12,9.80
2006,09,14,03,13,9.80
2006,09,14,03,14,9.80
2006,09,14,03,15,9.70
2006,09,14,03,16,9.70
2006,09,14,03,17,9.70
2006,09,14,03,18,9.70
2006,09,14,03,19,9.70
2006,09,14,03,20,9.70
2006,09,14,03,21,9.60
2006,09,14,03,22,9.60
2006,09,14,03,23,9.60
2006,09,14,03,24,9.50
2006,09,14,03,25,9.50
2006,09,14,03,26,9.50
2006,09,14,03,27,9.50
2006,09,14,03,28,9.50
2006,09,14,03,29,9.50
2006,09,14,03,30,9.40
2006,09,14,03,31,9.40
2006,09,14,03,32,9.40
2006,09,14,03,33,9.50
2006,09,14,03,34,9.50
2006,09,14,03,35,9.50
2006,09,14,03,36,9.50
2006,09,14,03,37,9.50
2006,09,14,03,38,9.40
2006,09,14,03,39,9.40
2006,09,14,03,40,9.30
2006,09,14,03,41,9.30
2006,09,14,03,42,9.30
2006,09,14,03,43,9.20
2006,09,14,03,44,9.20
2006,09,14,03,45,9.20
2006,09,14,03,46,9.20
2006,09,14,03,47,9.20
2006,09,14,03,48,9.20
2006,09,14,03,49,9.20
2006,09,14,03,50,9.20
2006,09,14,03,51,9.20
2006,09,14,03,52,9.20
2006,09,14,03,53,9.20
2006,09,14,03,54,9.20
2006,09,14,03,55,9.20
2006,09,14,03,56,9.10
2006,09,14,03,57,9.10
2006,09,14,03,58,9.10
2006,09,14,03,59,9.10
2006,09,14,04,00,9.00
2006,09,14,04,01,9.00
2006,09,14,04,02,9.00
2006,09,14,04,03,9.00
2006,09,14,04,04,9.00
2006,09,14,04,05,9.00
2006,09,14,04,06,8.90
2006,09,14,04,07,8.90
2006,09,14,04,08,8.90
2006,09,14,04,09,8.90
2006,09,14,04,10,8.90
2006,09,14,04,11,8.90
2006,09,14,04,12,8.90
2006,09,14,04,13,8.90
2006,09,14,04,14,8.90
2006,09,14,04,15,8.90
2006,09,14,04,16,8.90
2006,09,14,04,17,8.90
2006,09,14,04,18,8.90
2006,09,14,04,19,8.90
2006,09,14,04,20,8.90
2006,09,14,04,21,8.90
2006,09,14,04,22,8.90
2006,09,14,04,23,8.90
2006,09,14,04,24,8.90
2006,09,14,04,25,8.90
2006,09,14,04,26,8.80
2006,09,14,04,27,8.80
2006,09,14,04,28,8.80
2006,09,14,04,29,8.80
2006,09,14,04,30,8.80
2006,09,14,04,31,8.70
2006,09,14,04,32,8.70
2006,09,14,04,33,8.70
2006,09,14,04,34,8.70
2006,09,14,04,35,8.70
2006,09,14,04,36,8.70
2006,09,14,04,37,8.70
2006,09,14,04,38,8.70
2006,09,14,04,39,8.70
2006,09,14,04,40,8.70
2006,09,14,04,41,8.70
2006,09,14,04,42,8.70
2006,09,14,04,43,8.80
2006,09,14,04,44,8.90
2006,09,14,04,45,8.90
2006,09,14,04,46,8.90
2006,09,14,04,47,8.90
2006,09,14,04,48,8.90
2006,09,14,04,49,8.90
2006,09,14,04,50,8.80
2006,09,14,04,51,8.80
2006,09,14,04,52,8.80
2006,09,14,04,53,8.80
2006,09,14,04,54,8.80
2006,09,14,04,55,8.80
2006,09,14,04,56,8.80
2006,09,14,04,57,8.70
2006,09,14,04,58,8.70
2006,09,14,04,59,8.70
2006,09,14,05,00,8.70
2006,09,14,05,01,8.70
2006,09,14,05,02,8.70
2006,09,14,05,03,8.70
2006,09,14,05,04,8.70
2006,09,14,05,05,8.70
2006,09,14,05,06,8.70
2006,09,14,05,07,8.70
2006,09,14,05,08,8.70
2006,09,14,05,09,8.70
2006,09,14,05,10,8.70
2006,09,14,05,11,8.70
2006,09,14,05,12,8.70
2006,09,14,05,13,8.60
2006,09,14,05,14,8.60
2006,09,14,05,15,8.50
2006,09,14,05,16,8.50
2006,09,14,05,17,8.50
2006,09,14,05,18,8.40
2006,09,14,05,19,8.40
2006,09,14,05,20,8.40
2006,09,14,05,21,8.40
2006,09,14,05,22,8.40
2006,09,14,05,23,8.40
2006,09,14,05,24,8.40
2006,09,14,05,25,8.40
2006,09,14,05,26,8.40
2006,09,14,05,27,8.40
2006,09,14,05,28,8.40
2006,09,14,05,29,8.40
2006,09,14,05,30,8.40
2006,09,14,05,31,8.40
2006,09,14,05,32,8.40
2006,09,14,05,33,8.40
2006,09,14,05,34,8.40
2006,09,14,05,35,8.40
2006,09,14,05,36,8.40
2006,09,14,05,37,8.30
2006,09,14,05,38,8.30
2006,09,14,05,39,8.30
2006,09,14,05,40,8.30
2006,09,14,05,41,8.30
2006,09,14,05,42,8.30
2006,09,14,05,43,8.40
2006,09,14,05,44,8.40
2006,09,14,05,45,8.30
2006,09,14,05,46,8.30
2006,09,14,05,47,8.40
2006,09,14,05,48,8.40
2006,09,14,05,49,8.40
2006,09,14,05,50,8.30
2006,09,14,05,51,8.30
2006,09,14,05,52,8.30
2006,09,14,05,53,8.30
2006,09,14,05,54,8.30
2006,09,14,05,55,8.30
2006,09,14,05,56,8.30
2006,09,14,05,57,8.30
2006,09,14,05,58,8.40
2006,09,14,05,59,8.40
2006,09,14,06,00,8.40
2006,09,14,06,01,8.40
2006,09,14,06,02,8.30
2006,09,14,06,03,8.30
2006,09,14,06,04,8.40
2006,09,14,06,05,8.40
2006,09,14,06,06,8.40
2006,09,14,06,07,8.40
2006,09,14,06,08,8.40
2006,09,14,06,09,8.40
2006,09,14,06,10,8.40
2006,09,14,06,11,8.40
2006,09,14,06,12,8.40
2006,09,14,06,13,8.40
2006,09,14,06,14,8.40
2006,09,14,06,15,8.50
2006,09,14,06,16,8.50
2006,09,14,06,17,8.60
2006,09,14,06,18,8.60
2006,09,14,06,19,8.70
2006,09,14,06,20,8.70
2006,09,14,06,21,8.70
2006,09,14,06,22,8.70
2006,09,14,06,23,8.70
2006,09,14,06,24,8.70
2006,09,14,06,25,8.70
2006,09,14,06,26,8.80
2006,09,14,06,27,8.80
2006,09,14,06,28,8.80
2006,09,14,06,29,8.80
2006,09,14,06,30,8.80
2006,09,14,06,31,8.80
2006,09,14,06,32,8.80
2006,09,14,06,33,8.80
2006,09,14,06,34,8.70
2006,09,14,06,35,8.70
2006,09,14,06,36,8.70
2006,09,14,06,37,8.70
2006,09,14,06,38,8.70
2006,09,14,06,39,8.70
2006,09,14,06,40,8.70
2006,09,14,06,41,8.70
2006,09,14,06,42,8.70
2006,09,14,06,43,8.70
2006,09,14,06,44,8.60
2006,09,14,06,45,8.60
2006,09,14,06,46,8.60
2006,09,14,06,47,8.60
2006,09,14,06,48,8.60
2006,09,14,06,49,8.60
2006,09,14,06,50,8.60
2006,09,14,06,51,8.60
2006,09,14,06,52,8.60
2006,09,14,06,53,8.60
2006,09,14,06,54,8.60
2006,09,14,06,55,8.60
2006,09,14,06,56,8.60
2006,09,14,06,57,8.60
2006,09,14,06,58,8.60
2006,09,14,06,59,8.60
2006,09,14,07,00,8.60
2006,09,14,07,01,8.60
2006,09,14,07,02,8.70
2006,09,14,07,03,8.70
2006,09,14,07,04,8.60
2006,09,14,07,05,8.60
2006,09,14,07,06,8.60
2006,09,14,07,07,8.60
2006,09,14,07,08,8.60
2006,09,14,07,09,8.60
2006,09,14,07,10,8.60
2006,09,14,07,11,8.60
2006,09,14,07,12,8.60
2006,09,14,07,13,8.60
2006,09,14,07,14,8.70
2006,09,14,07,15,8.70
2006,09,14,07,16,8.70
2006,09,14,07,17,8.70
2006,09,14,07,18,8.80
2006,09,14,07,19,8.80
2006,09,14,07,20,8.80
2006,09,14,07,21,8.70
2006,09,14,07,22,8.70
2006,09,14,07,23,8.70
2006,09,14,07,24,8.70
2006,09,14,07,25,8.70
2006,09,14,07,26,8.70
2006,09,14,07,27,8.70
2006,09,14,07,28,8.60
2006,09,14,07,29,8.60
2006,09,14,07,30,8.70
2006,09,14,07,31,8.70
2006,09,14,07,32,8.70
2006,09,14,07,33,8.70
2006,09,14,07,34,8.70
2006,09,14,07,35,8.70
2006,09,14,07,36,8.70
2006,09,14,07,37,8.70
2006,09,14,07,38,8.70
2006,09,14,07,39,8.70
2006,09,14,07,40,8.70
2006,09,14,07,41,8.70
2006,09,14,07,42,8.80
2006,09,14,07,43,8.80
2006,09,14,07,44,8.90
2006,09,14,07,45,8.90
2006,09,14,07,46,8.90
2006,09,14,07,47,9.00
2006,09,14,07,48,9.00
2006,09,14,07,49,9.00
2006,09,14,07,50,9.10
2006,09,14,07,51,9.20
2006,09,14,07,52,9.20
2006,09,14,07,53,9.20
2006,09,14,07,54,9.20
2006,09,14,07,55,9.40
2006,09,14,07,56,9.50
2006,09,14,07,57,9.60
2006,09,14,07,58,9.70
2006,09,14,07,59,9.70
2006,09,14,08,00,9.80
2006,09,14,08,01,9.90
2006,09,14,08,02,9.90
2006,09,14,08,03,9.90
2006,09,14,08,04,9.90
2006,09,14,08,05,9.90
2006,09,14,08,06,9.90
2006,09,14,08,07,9.90
2006,09,14,08,08,10.10
2006,09,14,08,09,10.10
2006,09,14,08,10,10.10
2006,09,14,08,11,10.10
2006,09,14,08,12,10.10
2006,09,14,08,13,10.10
2006,09,14,08,14,10.10
2006,09,14,08,15,10.10
2006,09,14,08,16,10.10
2006,09,14,08,17,10.10
2006,09,14,08,18,10.20
2006,09,14,08,19,10.20
2006,09,14,08,20,10.20
2006,09,14,08,21,10.20
2006,09,14,08,22,10.20
2006,09,14,08,23,10.20
2006,09,14,08,24,10.20
2006,09,14,08,25,10.20
2006,09,14,08,26,10.20
2006,09,14,08,27,10.30
2006,09,14,08,28,10.30
2006,09,14,08,29,10.30
2006,09,14,08,30,10.30
2006,09,14,08,31,10.30
2006,09,14,08,32,10.30
2006,09,14,08,33,10.30
2006,09,14,08,34,10.40
2006,09,14,08,35,10.40
2006,09,14,08,36,10.40
2006,09,14,08,37,10.40
2006,09,14,08,38,10.40
2006,09,14,08,39,10.40
2006,09,14,08,40,10.40
2006,09,14,08,41,10.60
2006,09,14,08,42,10.60
2006,09,14,08,43,10.60
2006,09,14,08,44,10.60
2006,09,14,08,45,10.70
2006,09,14,08,46,10.70
2006,09,14,08,47,10.80
2006,09,14,08,48,10.80
2006,09,14,08,49,10.90
2006,09,14,08,50,10.90
2006,09,14,08,51,10.90
2006,09,14,08,52,10.90
2006,09,14,08,53,10.90
2006,09,14,08,54,10.90
2006,09,14,08,55,10.90
2006,09,14,08,56,10.90
2006,09,14,08,57,10.90
2006,09,14,08,58,10.90
2006,09,14,08,59,10.90
2006,09,14,09,00,10.90
2006,09,14,09,01,10.90
2006,09,14,09,02,10.90
2006,09,14,09,03,10.90
2006,09,14,09,04,10.90
2006,09,14,09,05,11.00
2006,09,14,09,06,11.10
2006,09,14,09,07,11.10
2006,09,14,09,08,11.20
2006,09,14,09,09,11.20
2006,09,14,09,10,11.30
2006,09,14,09,11,11.40
2006,09,14,09,12,11.40
2006,09,14,09,13,11.40
2006,09,14,09,14,11.60
2006,09,14,09,15,11.60
2006,09,14,09,16,11.60
2006,09,14,09,17,11.70
2006,09,14,09,18,11.80
2006,09,14,09,19,11.90
2006,09,14,09,20,12.10
2006,09,14,09,21,12.20
2006,09,14,09,22,12.30
2006,09,14,09,23,12.50
2006,09,14,09,24,12.60
2006,09,14,09,25,12.70
2006,09,14,09,26,12.80
2006,09,14,09,27,13.00
2006,09,14,09,28,13.10
2006,09,14,09,29,13.10
2006,09,14,09,30,13.10
2006,09,14,09,31,13.10
2006,09,14,09,32,13.20
2006,09,14,09,33,13.20
2006,09,14,09,34,13.20
2006,09,14,09,35,13.20
2006,09,14,09,36,13.30
2006,09,14,09,37,13.30
2006,09,14,09,38,13.40
2006,09,14,09,39,13.50
2006,09,14,09,40,13.60
2006,09,14,09,41,13.70
2006,09,14,09,42,13.70
2006,09,14,09,43,13.70
2006,09,14,09,44,13.70
2006,09,14,09,45,13.70
2006,09,14,09,46,13.70
2006,09,14,09,47,13.80
2006,09,14,09,48,13.80
2006,09,14,09,49,13.90
2006,09,14,09,50,13.80
2006,09,14,09,51,13.80
2006,09,14,09,52,13.80
2006,09,14,09,53,13.90
2006,09,14,09,54,13.90
2006,09,14,09,55,13.90
2006,09,14,09,56,13.90
2006,09,14,09,57,13.90
2006,09,14,09,58,14.00
2006,09,14,09,59,14.00
2006,09,14,10,00,14.10
2006,09,14,10,01,14.20
2006,09,14,10,02,14.30
2006,09,14,10,03,14.30
2006,09,14,10,04,14.30
2006,09,14,10,05,14.30
2006,09,14,10,06,14.30
2006,09,14,10,07,14.30
2006,09,14,10,08,14.40
2006,09,14,10,09,14.50
2006,09,14,10,10,14.50
2006,09,14,10,11,14.50
2006,09,14,10,12,14.50
2006,09,14,10,13,14.30
2006,09,14,10,14,14.20
2006,09,14,10,15,14.20
2006,09,14,10,16,14.20
2006,09,14,10,17,14.20
2006,09,14,10,18,14.20
2006,09,14,10,19,14.20
2006,09,14,10,20,14.00
2006,09,14,10,21,13.90
2006,09,14,10,22,13.70
2006,09,14,10,23,13.60
2006,09,14,10,24,13.60
2006,09,14,10,25,13.60
2006,09,14,10,26,13.70
2006,09,14,10,27,13.80
2006,09,14,10,28,13.90
2006,09,14,10,29,13.90
2006,09,14,10,30,13.90
2006,09,14,10,31,14.00
2006,09,14,10,32,14.00
2006,09,14,10,33,14.10
2006,09,14,10,34,14.20
2006,09,14,10,35,14.20
2006,09,14,10,36,14.20
2006,09,14,10,37,14.20
2006,09,14,10,38,14.20
2006,09,14,10,39,14.00
2006,09,14,10,40,13.90
2006,09,14,10,41,13.80
2006,09,14,10,42,13.80
2006,09,14,10,43,13.80
2006,09,14,10,44,13.80
2006,09,14,10,45,13.80
2006,09,14,10,46,13.70
2006,09,14,10,47,13.80
2006,09,14,10,48,13.90
2006,09,14,10,49,14.00
2006,09,14,10,50,14.10
2006,09,14,10,51,14.10
2006,09,14,10,52,14.10
2006,09,14,10,53,14.10
2006,09,14,10,54,14.10
2006,09,14,10,55,14.10
2006,09,14,10,56,14.00
2006,09,14,10,57,14.20
2006,09,14,10,58,14.20
2006,09,14,10,59,14.30
2006,09,14,11,00,14.30
2006,09,14,11,01,14.40
2006,09,14,11,02,14.50
2006,09,14,11,03,14.50
2006,09,14,11,04,14.40
2006,09,14,11,05,14.30
2006,09,14,11,06,14.20
2006,09,14,11,07,14.20
2006,09,14,11,08,14.20
2006,09,14,11,09,14.20
2006,09,14,11,10,14.10
2006,09,14,11,11,14.00
2006,09,14,11,12,14.00
2006,09,14,11,13,13.90
2006,09,14,11,14,13.90
2006,09,14,11,15,13.90
2006,09,14,11,16,13.90
2006,09,14,11,17,13.80
2006,09,14,11,18,13.60
2006,09,14,11,19,13.60
2006,09,14,11,20,13.60
2006,09,14,11,21,13.70
2006,09,14,11,22,13.90
2006,09,14,11,23,13.80
2006,09,14,11,24,13.70
2006,09,14,11,25,13.70
2006,09,14,11,26,13.70
2006,09,14,11,27,13.50
2006,09,14,11,28,13.50
2006,09,14,11,29,13.40
2006,09,14,11,30,13.30
2006,09,14,11,31,13.30
2006,09,14,11,32,13.30
2006,09,14,11,33,13.30
2006,09,14,11,34,13.30
2006,09,14,11,35,13.30
2006,09,14,11,36,13.30
2006,09,14,11,37,13.30
2006,09,14,11,38,13.30
2006,09,14,11,39,13.30
2006,09,14,11,40,13.30
2006,09,14,11,41,13.20
2006,09,14,11,42,13.20
2006,09,14,11,43,13.00
2006,09,14,11,44,12.90
2006,09,14,11,45,13.00
2006,09,14,11,46,13.00
2006,09,14,11,47,13.00
2006,09,14,11,48,13.00
2006,09,14,11,49,13.10
2006,09,14,11,50,13.20
2006,09,14,11,51,13.20
2006,09,14,11,52,13.20
2006,09,14,11,53,13.10
2006,09,14,11,54,13.00
2006,09,14,11,55,13.00
2006,09,14,11,56,13.10
2006,09,14,11,57,13.10
2006,09,14,11,58,13.20
2006,09,14,11,59,13.20
2006,09,14,12,00,13.00
2006,09,14,12,01,12.90
2006,09,14,12,02,12.90
2006,09,14,12,03,12.90
2006,09,14,12,04,13.00
2006,09,14,12,05,13.10
2006,09,14,12,06,13.10
2006,09,14,12,07,13.20
2006,09,14,12,08,13.30
2006,09,14,12,09,13.30
2006,09,14,12,10,13.30
2006,09,14,12,11,13.20
2006,09,14,12,12,13.10
2006,09,14,12,13,13.00
2006,09,14,12,14,13.00
2006,09,14,12,15,13.10
2006,09,14,12,16,13.10
2006,09,14,12,17,13.10
2006,09,14,12,18,13.20
2006,09,14,12,19,13.20
2006,09,14,12,20,13.20
2006,09,14,12,21,13.20
2006,09,14,12,22,13.10
2006,09,14,12,23,12.90
2006,09,14,12,24,12.90
2006,09,14,12,25,12.90
2006,09,14,12,26,12.90
2006,09,14,12,27,12.90
2006,09,14,12,28,12.90
2006,09,14,12,29,12.90
2006,09,14,12,30,13.00
2006,09,14,12,31,13.00
2006,09,14,12,32,13.00
2006,09,14,12,33,13.00
2006,09,14,12,34,12.90
2006,09,14,12,35,12.90
2006,09,14,12,36,12.90
2006,09,14,12,37,13.00
2006,09,14,12,38,13.10
2006,09,14,12,39,13.20
2006,09,14,12,40,13.30
2006,09,14,12,41,13.40
2006,09,14,12,42,13.40
2006,09,14,12,43,13.30
2006,09,14,12,44,13.30
2006,09,14,12,45,13.30
2006,09,14,12,46,13.30
2006,09,14,12,47,13.30
2006,09,14,12,48,13.30
2006,09,14,12,49,13.40
2006,09,14,12,50,13.50
2006,09,14,12,51,13.60
2006,09,14,12,52,13.60
2006,09,14,12,53,13.60
2006,09,14,12,54,13.50
2006,09,14,12,55,13.50
2006,09,14,12,56,13.40
2006,09,14,12,57,13.40
2006,09,14,12,58,13.30
2006,09,14,12,59,13.30
2006,09,14,13,00,13.40
2006,09,14,13,01,13.40
2006,09,14,13,02,13.30
2006,09,14,13,03,13.30
2006,09,14,13,04,13.30
2006,09,14,13,05,13.30
2006,09,14,13,06,13.30
2006,09,14,13,07,13.30
2006,09,14,13,08,13.50
2006,09,14,13,09,13.60
2006,09,14,13,10,13.70
2006,09,14,13,11,13.80
2006,09,14,13,12,13.90
2006,09,14,13,13,13.90
2006,09,14,13,14,13.90
2006,09,14,13,15,13.90
2006,09,14,13,16,13.90
2006,09,14,13,17,13.90
2006,09,14,13,18,13.90
2006,09,14,13,19,13.90
2006,09,14,13,20,13.90
2006,09,14,13,21,13.90
2006,09,14,13,22,13.90
2006,09,14,13,23,14.00
2006,09,14,13,24,14.10
2006,09,14,13,25,14.00
2006,09,14,13,26,13.90
2006,09,14,13,27,13.90
2006,09,14,13,28,13.70
2006,09,14,13,29,13.70
2006,09,14,13,30,13.70
2006,09,14,13,31,13.70
2006,09,14,13,32,13.70
2006,09,14,13,33,13.70
2006,09,14,13,34,13.70
2006,09,14,13,35,13.70
2006,09,14,13,36,13.60
2006,09,14,13,37,13.50
2006,09,14,13,38,13.50
2006,09,14,13,39,13.60
2006,09,14,13,40,13.50
2006,09,14,13,41,13.60
2006,09,14,13,42,13.50
2006,09,14,13,43,13.50
2006,09,14,13,44,13.40
2006,09,14,13,45,13.30
2006,09,14,13,46,13.30
2006,09,14,13,47,13.30
2006,09,14,13,48,13.30
2006,09,14,13,49,13.30
2006,09,14,13,50,13.30
2006,09,14,13,51,13.40
2006,09,14,13,52,13.50
2006,09,14,13,53,13.60
2006,09,14,13,54,13.70
2006,09,14,13,55,13.60
2006,09,14,13,56,13.60
2006,09,14,13,57,13.60
2006,09,14,13,58,13.60
2006,09,14,13,59,13.70
2006,09,14,14,00,13.70
2006,09,14,14,01,13.70
2006,09,14,14,02,13.80
2006,09,14,14,03,13.90
2006,09,14,14,04,13.80
2006,09,14,14,05,13.70
2006,09,14,14,06,13.80
2006,09,14,14,07,13.90
2006,09,14,14,08,13.90
2006,09,14,14,09,13.90
2006,09,14,14,10,13.80
2006,09,14,14,11,13.80
2006,09,14,14,12,13.90
2006,09,14,14,13,13.90
2006,09,14,14,14,13.90
2006,09,14,14,15,13.90
2006,09,14,14,16,13.90
2006,09,14,14,17,13.70
2006,09,14,14,18,13.70
2006,09,14,14,19,13.70
2006,09,14,14,20,13.70
2006,09,14,14,21,13.70
2006,09,14,14,22,13.60
2006,09,14,14,23,13.60
2006,09,14,14,24,13.50
2006,09,14,14,25,13.40
2006,09,14,14,26,13.40
2006,09,14,14,27,13.50
2006,09,14,14,28,13.60
2006,09,14,14,29,13.60
2006,09,14,14,30,13.60
2006,09,14,14,31,13.70
2006,09,14,14,32,13.80
2006,09,14,14,33,13.80
2006,09,14,14,34,13.90
2006,09,14,14,35,13.90
2006,09,14,14,36,13.90
2006,09,14,14,37,13.90
2006,09,14,14,38,13.90
2006,09,14,14,39,13.90
2006,09,14,14,40,13.90
2006,09,14,14,41,13.90
2006,09,14,14,42,13.90
2006,09,14,14,43,13.80
2006,09,14,14,44,13.70
2006,09,14,14,45,13.70
2006,09,14,14,46,13.80
2006,09,14,14,47,13.90
2006,09,14,14,48,13.90
2006,09,14,14,49,13.90
2006,09,14,14,50,14.00
2006,09,14,14,51,14.10
2006,09,14,14,52,14.10
2006,09,14,14,53,14.00
2006,09,14,14,54,14.10
2006,09,14,14,55,14.20
2006,09,14,14,56,14.20
2006,09,14,14,57,14.20
2006,09,14,14,58,14.20
2006,09,14,14,59,14.20
2006,09,14,15,00,14.10
2006,09,14,15,01,14.10
2006,09,14,15,02,14.20
2006,09,14,15,03,14.20
2006,09,14,15,04,14.10
2006,09,14,15,05,14.00
2006,09,14,15,06,13.90
2006,09,14,15,07,14.00
2006,09,14,15,08,14.10
2006,09,14,15,09,14.10
2006,09,14,15,10,14.10
2006,09,14,15,11,14.00
2006,09,14,15,12,13.90
2006,09,14,15,13,13.90
2006,09,14,15,14,13.90
2006,09,14,15,15,13.90
2006,09,14,15,16,13.90
2006,09,14,15,17,13.90
2006,09,14,15,18,13.90
2006,09,14,15,19,14.00
2006,09,14,15,20,14.00
2006,09,14,15,21,14.00
2006,09,14,15,22,14.00
2006,09,14,15,23,14.00
2006,09,14,15,24,13.90
2006,09,14,15,25,14.00
2006,09,14,15,26,14.10
2006,09,14,15,27,14.00
2006,09,14,15,28,14.00
2006,09,14,15,29,14.00
2006,09,14,15,30,14.00
2006,09,14,15,31,14.00
2006,09,14,15,32,14.10
2006,09,14,15,33,14.20
2006,09,14,15,34,14.20
2006,09,14,15,35,14.20
2006,09,14,15,36,14.10
2006,09,14,15,37,13.90
2006,09,14,15,38,13.90
2006,09,14,15,39,13.90
2006,09,14,15,40,13.80
2006,09,14,15,41,13.80
2006,09,14,15,42,13.70
2006,09,14,15,43,13.70
2006,09,14,15,44,13.70
2006,09,14,15,45,13.70
2006,09,14,15,46,13.80
2006,09,14,15,47,13.90
2006,09,14,15,48,13.80
2006,09,14,15,49,13.80
2006,09,14,15,50,13.80
2006,09,14,15,51,13.70
2006,09,14,15,52,13.70
2006,09,14,15,53,13.60
2006,09,14,15,54,13.60
2006,09,14,15,55,13.60
2006,09,14,15,56,13.60
2006,09,14,15,57,13.60
2006,09,14,15,58,13.60
2006,09,14,15,59,13.60
2006,09,14,16,00,13.60
2006,09,14,16,01,13.70
2006,09,14,16,02,13.70
2006,09,14,16,03,13.70
2006,09,14,16,04,13.70
2006,09,14,16,05,13.70
2006,09,14,16,06,13.60
2006,09,14,16,07,13.50
2006,09,14,16,08,13.50
2006,09,14,16,09,13.50
2006,09,14,16,10,13.40
2006,09,14,16,11,13.40
2006,09,14,16,12,13.30
2006,09,14,16,13,13.30
2006,09,14,16,14,13.30
2006,09,14,16,15,13.20
2006,09,14,16,16,13.10
2006,09,14,16,17,13.10
2006,09,14,16,18,13.10
2006,09,14,16,19,13.00
2006,09,14,16,20,13.00
2006,09,14,16,21,12.90
2006,09,14,16,22,12.80
2006,09,14,16,23,12.80
2006,09,14,16,24,12.90
2006,09,14,16,25,12.90
2006,09,14,16,26,12.90
2006,09,14,16,27,13.00
2006,09,14,16,28,13.00
2006,09,14,16,29,13.00
2006,09,14,16,30,13.00
2006,09,14,16,31,13.10
2006,09,14,16,32,13.00
2006,09,14,16,33,13.00
2006,09,14,16,34,13.00
2006,09,14,16,35,12.90
2006,09,14,16,36,12.90
2006,09,14,16,37,12.90
2006,09,14,16,38,12.90
2006,09,14,16,39,12.90
2006,09,14,16,40,12.90
2006,09,14,16,41,13.00
2006,09,14,16,42,12.90
2006,09,14,16,43,12.90
2006,09,14,16,44,13.00
2006,09,14,16,45,12.90
2006,09,14,16,46,13.00
2006,09,14,16,47,13.00
2006,09,14,16,48,13.00
2006,09,14,16,49,13.00
2006,09,14,16,50,13.00
2006,09,14,16,51,13.00
2006,09,14,16,52,13.00
2006,09,14,16,53,13.00
2006,09,14,16,54,12.90
2006,09,14,16,55,12.90
2006,09,14,16,56,12.90
2006,09,14,16,57,12.90
2006,09,14,16,58,12.90
2006,09,14,16,59,12.80
2006,09,14,17,00,12.80
2006,09,14,17,01,12.80
2006,09,14,17,02,12.80
2006,09,14,17,03,12.80
2006,09,14,17,04,12.80
2006,09,14,17,05,12.80
2006,09,14,17,06,12.80
2006,09,14,17,07,12.80
2006,09,14,17,08,12.80
2006,09,14,17,09,12.80
2006,09,14,17,10,12.80
2006,09,14,17,11,12.80
2006,09,14,17,12,12.70
2006,09,14,17,13,12.70
2006,09,14,17,14,12.70
2006,09,14,17,15,12.70
2006,09,14,17,16,12.70
2006,09,14,17,17,12.80
2006,09,14,17,18,12.80
2006,09,14,17,19,12.80
2006,09,14,17,20,12.80
2006,09,14,17,21,12.80
2006,09,14,17,22,12.80
2006,09,14,17,23,12.80
2006,09,14,17,24,12.80
2006,09,14,17,25,12.80
2006,09,14,17,26,12.80
2006,09,14,17,27,12.80
2006,09,14,17,28,12.80
2006,09,14,17,29,12.80
2006,09,14,17,30,12.80
2006,09,14,17,31,12.80
2006,09,14,17,32,12.80
2006,09,14,17,33,12.90